Location: NJAA Observatory
(40.6819°N, 74.8979°W)
Time: 02:47:37
(UTC-05:00)

Transit 2A Rocket - Visible Passes

Search period start: 24 February 2018 00:00
Search period end: 06 March 2018 00:00
Orbit: 587 x 916 km, 66.7° (Epoch: 23 February)

Date Brightness Start Highest point End Pass type
(mag) Time Alt. Az. Time Alt. Az. Time Alt. Az.
26 Feb 8.6 05:35:47 10° SE 05:38:15 13° ESE 05:40:41 10° ENE visible
28 Feb 7.4 05:50:10 10° S 05:55:26 31° ESE 06:00:34 10° NE visible
01 Mar 8.1 05:09:13 10° SSE 05:13:15 19° ESE 05:17:13 10° ENE visible
02 Mar 8.6 04:31:00 10° ESE 04:31:11 10° E 04:31:22 10° E visible
03 Mar 6.6 05:24:50 10° S 05:30:34 43° ESE 05:36:06 10° NE visible
04 Mar 7.4 04:43:23 10° SSE 04:48:19 26° ESE 04:53:08 10° NE visible
05 Mar 8.0 04:02:49 10° SE 04:06:10 15° ESE 04:09:29 10° ENE visible
05 Mar 5.3 05:42:02 10° SSW 05:48:09 84° WNW 05:54:01 10° NNE visible
